[Iaude] MPEC F101: 2018 FU3 [a=2.06,e=0.51,i=3.9,H=26.3]

mpec at mpcdb1.cfa.harvard.edu mpec at mpcdb1.cfa.harvard.edu
Thu Mar 22 10:51:16 EDT 2018


M.P.E.C. 2018-F101                               Issued 2018 Mar. 22, 14:47 UT
 
     The Minor Planet Electronic Circulars contain information on unusual
         minor planets and routine data on comets.  They are published
    on behalf of Division F of the International Astronomical Union by the
          Minor Planet Center, Smithsonian Astrophysical Observatory,
                          Cambridge, MA 02138, U.S.A.

             Prepared using the Tamkin Foundation Computer Network

                              MPC at CFA.HARVARD.EDU
            URL https://www.minorplanetcenter.net/    ISSN 1523-6714


                                   2018 FU3
 
Observations:
     K18F03U* C2018 03 20.34352 12 27 17.38 -03 23 58.1          20.9 GUEF101G96
     K18F03U  C2018 03 20.34866 12 27 19.86 -03 24 40.5                UEF101G96
     K18F03U  C2018 03 20.35380 12 27 22.24 -03 25 22.5          20.8 GUEF101G96
     K18F03U  C2018 03 20.35894 12 27 24.73 -03 26 04.0          21.4 GUEF101G96
     K18F03U  C2018 03 20.41553 12 27 51.99 -03 33 50.2          21.2 GUEF101G96
     K18F03U  C2018 03 20.41628 12 27 52.35 -03 33 56.3          20.8 GUEF101G96
     K18F03U  C2018 03 20.41821 12 27 53.28 -03 34 12.4          20.9 GUEF101G96
     K18F03U  C2018 03 20.41896 12 27 53.67 -03 34 18.8          21.1 GUEF101G96
     K18F03U  C2018 03 21.30807 12 36 15.17 -05 43 06.3          20.0 GUEF101I52
     K18F03U  C2018 03 21.30972 12 36 16.05 -05 43 21.1          19.9 GUEF101I52
     K18F03U  C2018 03 21.31138 12 36 16.91 -05 43 36.2          20.6 GUEF101I52
     K18F03U  C2018 03 21.31303 12 36 17.81 -05 43 51.2          20.2 GUEF101I52
     K18F03U  C2018 03 21.95132 12 42 48.31 -07 24 40.9          20.2 VSEF101033
     K18F03U  C2018 03 21.95420 12 42 50.01 -07 25 09.1          19.8 VSEF101033
     K18F03U |C2018 03 22.25629 12 46 01.97 -08 11 51.9          20.9 GUEF101807
     K18F03U |C2018 03 22.26158 12 46 05.19 -08 12 45.1          20.9 GUEF101807
     K18F03U |C2018 03 22.26668 12 46 08.29 -08 13 35.8          21.0 GUEF101807
     K18F03U  C2018 03 22.35218 12 47 06.32 -08 30 36.0          20.8 GUEF101I52
     K18F03U  C2018 03 22.35342 12 47 07.08 -08 30 48.7          21.5 GUEF101I52
     K18F03U  C2018 03 22.35466 12 47 07.78 -08 31 01.8          20.4 GUEF101I52
 
Observer details:
033 Karl Schwarzschild Observatory, Tautenburg.  Observers F. Ludwig,
    B. Stecklum.  Measurer B. Stecklum.  1.34-m f/3 Schmidt + CCD.
807 Cerro Tololo.  Observers T. Linder, R. Holmes.  0.61-m f/6.5 astrograph
    + CCD.
G96 Mt. Lemmon Survey.  Observer J. A. Johnson.  Measurers B. M. Africano,
    E. J. Christensen, D. C. Fuls, A. R. Gibbs, A. D. Grauer, J. A. Johnson,
    R. A. Kowalski, S. M. Larson, G. J. Leonard, R. L. Seaman, F. C. Shelly.
    1.5-m reflector + 10K CCD.
I52 Steward Observatory, Mt. Lemmon Station.  Observers B. M. Africano,
    E. J. Christensen.  Measurers B. M. Africano, E. J. Christensen,
    D. C. Fuls, A. R. Gibbs, A. D. Grauer, J. A. Johnson, R. A. Kowalski,
    S. M. Larson, G. J. Leonard, R. L. Seaman, F. C. Shelly.  1.0-m reflector
    + CCD.
 
Orbital elements:
2018 FU3                                                 Earth MOID = 0.0271 AU
Epoch 2018 Mar. 23.0 TT = JDT 2458200.5                 MPC
M 352.07337              (2000.0)            P               Q
n   0.33310418     Peri.  210.92462     -0.86167918     +0.50745318
a   2.0610221      Node   359.56874     -0.45072330     -0.76580753
e   0.5101795      Incl.    3.86278     -0.23314693     -0.39500645
P   2.96           H   26.3           G   0.15           U   7
Residuals in seconds of arc
180320 G96  0.1+  0.2-    180320 G96  0.2+  0.1-    180322 807  0.1-  0.0
180320 G96  0.6+  0.4-    180321 I52  0.2+  0.3-    180322 807  0.3+  0.1-
180320 G96  0.5-  0.2-    180321 I52  0.1+  0.0     180322 807  0.6+  0.3+
180320 G96  0.0   0.5+    180321 I52  0.3-  0.0     180322 I52  0.2+  0.3+
180320 G96  0.0   0.2+    180321 I52  0.1-  0.1+    180322 I52  0.2+  0.2+
180320 G96  0.0   0.3+    180321 033  0.1-  0.1-    180322 I52  0.6-  0.3-
180320 G96  0.2-  0.1+    180321 033  0.4-  0.2-

Ephemeris:
2018 FU3                 a,e,i = 2.06, 0.51, 4                   q = 1.0095
Date    TT    R. A. (2000) Decl.     Delta      r     Elong.  Phase     V
2018 02 20    11 00 00.5 +17 02 40   0.2158  1.2000   167.0    10.7    24.0
...
2018 03 07    11 23 54.7 +12 34 18   0.1258  1.1170   172.0     7.1    22.6
...
2018 03 15    11 51 58.7 +05 47 09   0.08610 1.0802   175.2     4.5    21.5
...
2018 03 21    12 33 15.5 -04 55 31   0.06171 1.0569   170.4     9.0    21.0
2018 03 22    12 43 16.9 -07 30 21   0.05837 1.0535   167.9    11.4    20.9
2018 03 23    12 54 34.8 -10 21 44   0.05532 1.0501   164.9    14.3    20.9
...
2018 03 29    14 38 58.0 -31 44 07   0.04536 1.0325   138.3    40.1    21.2
...
2018 04 06    18 01 32.3 -46 17 42   0.05823 1.0166   104.4    72.5    22.7
...
2018 04 21    20 34 18.1 -40 36 07   0.1139  1.0114    90.1    83.4    24.5

A. U. Tomatic                (C) Copyright 2018 MPC           M.P.E.C. 2018-F101



More information about the Iaude mailing list